Flag for Canada Weather past 2 weeks in Whitby, Ontario, Canada

Now
68 °F

Partly sunny.


Feels Like: 68 °F
Forecast: 53 / 76 °F
Wind: 6 mph from Southwest

Location: Toronto Buttonville

Current Time: Jul 3, 2015 at 8:44:02 PM

Latest Report: Jul 3, 2015 at 8:00 PM


Visibility: 15 mi

Pressure: 29.93 "Hg

Humidity: 46%

Dew point: 46 °F

Location of WhitbyLocation

Historic Weather in Whitby — Graph

°F

Whitby temperature yesterday

Maximum temperature yesterday: 70 °F (at 4:00 PM)
Minimum temperature yesterday: 55 °F (at 5:00 AM)
Average temperature yesterday: 63 °F

Past Weeks' High & Low Weather Summary

 TemperatureHumidityPressure
High79 °F (Jun 21, 12:00 PM)100% (Jun 23, 1:04 AM)30.11 "Hg (Jun 23, 1:04 AM)
Low50 °F (Jun 20, 5:00 AM)31% (Jul 3, 5:00 PM)29.62 "Hg (Jun 23, 5:00 AM)
Average65 °F72%29.92 "Hg
* Reported Jun 18 7:00 PM — Jul 3 7:00 PM, Whitby, Weather by CustomWeather, © 2015

Note: Actual official high and low records may vary slightly from our data, if they occured in-between our weather recording intervals... More about our weather records

Advertising

Whitby weather history for previous 24 hours

 ConditionsComfort  
Time TempWeatherWind HumidityBarometerVisibility
7:00 PM
Fri, Jul 3
72 °FPartly sunny.5 mph41%29.94 "Hg15 mi
6:00 PM72 °FPartly sunny.3 mph31%29.95 "Hg15 mi
5:00 PM72 °FPartly sunny.8 mph31%29.96 "Hg15 mi
4:00 PM72 °FPartly sunny.9 mph33%29.97 "Hg15 mi
3:00 PM72 °FPartly sunny.8 mph36%29.98 "Hg15 mi
2:00 PM72 °FPartly sunny.9 mph36%29.98 "Hg15 mi
1:00 PM72 °FPassing clouds.6 mph44%30.00 "Hg15 mi
12:00 PM72 °FPassing clouds.8 mph38%30.01 "Hg15 mi
11:00 AM68 °FPassing clouds.3 mph43%30.01 "Hg15 mi
10:00 AM66 °FSunny.5 mph52%30.01 "Hg15 mi
9:00 AM64 °FSunny.2 mph60%30.02 "Hg15 mi
8:00 AM61 °FSunny.5 mph63%30.02 "Hg15 mi
7:00 AM55 °FSunny.6 mph77%30.01 "Hg15 mi
6:00 AM54 °FClear.6 mph77%30.01 "Hg15 mi
5:00 AM54 °FClear.7 mph72%29.99 "Hg15 mi
4:00 AM54 °FClear.5 mph72%29.99 "Hg15 mi
3:00 AM54 °FClear.6 mph72%29.99 "Hg15 mi
2:00 AM55 °FClear.3 mph63%30.00 "Hg15 mi
1:00 AM54 °FClear.6 mph67%30.00 "Hg15 mi
12:00 AM57 °FClear.3 mph59%30.00 "Hg15 mi
11:00 PM
Thu, Jul 2
59 °FClear.5 mph55%30.00 "Hg15 mi
10:00 PM59 °FSunny.7 mph59%29.99 "Hg15 mi
9:00 PM63 °FSunny.8 mph49%29.98 "Hg15 mi
8:00 PM66 °FSunny.7 mph43%29.98 "Hg15 mi
Weather by CustomWeather, © 2015

See weather overviewHow to use our weather pages